Hourly Weather Santa Fe

Today, 21 September, Monday

Time Temperature Precipitation Wind Pressure Humidity
00:00 +10°C° 0 mm 1 mps 766 mmHg 49%
01:00 +10°C° 0 mm 1 mps 767 mmHg 51%
02:00 +9°C° 0 mm 1 mps 767 mmHg 51%
03:00 +8°C° 0 mm 1 mps 767 mmHg 53%
04:00 +8°C° 0 mm 1 mps 767 mmHg 54%
05:00 +8°C° 0 mm 1 mps 767 mmHg 55%
06:00 +9°C° 0 mm 1 mps 767 mmHg 52%
07:00 +11°C° 0 mm 1 mps 767 mmHg 48%
08:00 +14°C° 0 mm 1 mps 768 mmHg 43%
09:00 +16°C° 0 mm 1 mps 768 mmHg 39%
10:00 +19°C° 0 mm 1 mps 767 mmHg 35%
11:00 +21°C° 0 mm 1 mps 767 mmHg 31%
12:00 +22°C° 0 mm 1 mps 767 mmHg 29%
13:00 +23°C° 0 mm 1 mps 766 mmHg 27%
14:00 +23°C° 0 mm 1 mps 765 mmHg 25%
15:00 +21°C° 0 mm 2 mps 765 mmHg 30%
16:00 +21°C° 0 mm 2 mps 764 mmHg 35%
17:00 +20°C° 0 mm 2 mps 764 mmHg 40%
18:00 +18°C° 0 mm 2 mps 764 mmHg 44%
19:00 +16°C° 0 mm 2 mps 765 mmHg 48%
20:00 +14°C° 0 mm 2 mps 765 mmHg 53%
21:00 +12°C° 0 mm 3 mps 765 mmHg 56%
22:00 +12°C° 0 mm 3 mps 765 mmHg 60%
23:00 +11°C° 0 mm 3 mps 765 mmHg 63%

Tomorrow, 22 September, Tuesday

Time Temperature Precipitation Wind Pressure Humidity
00:00 +10°C° 0 mm 3 mps 765 mmHg 65%
01:00 +10°C° 0 mm 3 mps 764 mmHg 68%
02:00 +9°C° 0 mm 2 mps 764 mmHg 70%
03:00 +9°C° 0 mm 3 mps 764 mmHg 72%
04:00 +8°C° 0 mm 3 mps 764 mmHg 74%
05:00 +8°C° 0 mm 3 mps 764 mmHg 76%
06:00 +10°C° 0 mm 3 mps 764 mmHg 72%
07:00 +11°C° 0 mm 4 mps 765 mmHg 68%
08:00 +13°C° 0 mm 4 mps 765 mmHg 64%
09:00 +15°C° 0 mm 4 mps 765 mmHg 58%
10:00 +18°C° 0 mm 4 mps 765 mmHg 51%
11:00 +20°C° 0 mm 4 mps 764 mmHg 45%
12:00 +21°C° 0 mm 4 mps 764 mmHg 42%
13:00 +22°C° 0 mm 4 mps 763 mmHg 40%
14:00 +23°C° 0 mm 4 mps 762 mmHg 38%
15:00 +22°C° 0 mm 4 mps 762 mmHg 42%
16:00 +22°C° 0 mm 3 mps 761 mmHg 45%
17:00 +21°C° 0 mm 3 mps 761 mmHg 49%
18:00 +19°C° 0 mm 3 mps 761 mmHg 54%
19:00 +17°C° 0 mm 3 mps 761 mmHg 60%
20:00 +14°C° 0 mm 4 mps 762 mmHg 65%
21:00 +13°C° 0 mm 3 mps 762 mmHg 68%
22:00 +13°C° 0 mm 3 mps 762 mmHg 72%
23:00 +12°C° 0 mm 3 mps 762 mmHg 75%

Day after tomorrow, 23 September, Wednesday

Time Temperature Precipitation Wind Pressure Humidity
00:00 +11°C° 0 mm 3 mps 762 mmHg 78%
01:00 +11°C° 0 mm 3 mps 762 mmHg 82%
02:00 +10°C° 0 mm 3 mps 762 mmHg 85%
03:00 +10°C° 0 mm 3 mps 762 mmHg 87%
04:00 +10°C° 0 mm 3 mps 762 mmHg 90%
05:00 +10°C° 0 mm 3 mps 762 mmHg 92%
06:00 +11°C° 0 mm 3 mps 762 mmHg 86%
07:00 +13°C° 0 mm 3 mps 762 mmHg 79%
08:00 +14°C° 0 mm 3 mps 763 mmHg 73%
09:00 +18°C° 0 mm 3 mps 763 mmHg 64%
10:00 +21°C° 0 mm 3 mps 762 mmHg 54%
11:00 +24°C° 0 mm 3 mps 762 mmHg 45%
12:00 +26°C° 0 mm 2 mps 761 mmHg 42%
13:00 +27°C° 0 mm 2 mps 761 mmHg 39%
14:00 +28°C° 0 mm 2 mps 760 mmHg 36%
15:00 +27°C° 0 mm 2 mps 760 mmHg 41%
16:00 +26°C° 0 mm 2 mps 759 mmHg 46%
17:00 +25°C° 0 mm 3 mps 759 mmHg 51%
18:00 +24°C° 0 mm 3 mps 759 mmHg 56%
19:00 +21°C° 0 mm 3 mps 759 mmHg 61%
20:00 +19°C° 0 mm 3 mps 759 mmHg 66%
21:00 +19°C° 0 mm 3 mps 759 mmHg 68%
22:00 +18°C° 0 mm 3 mps 759 mmHg 70%
23:00 +18°C° 0 mm 3 mps 759 mmHg 72%

24 September, Thursday

Time Temperature Precipitation Wind Pressure Humidity
00:00 +18°C° 0 mm 3 mps 759 mmHg 74%
01:00 +17°C° 0 mm 3 mps 759 mmHg 76%
02:00 +17°C° 0 mm 3 mps 759 mmHg 78%
03:00 +17°C° 0 mm 3 mps 759 mmHg 79%
04:00 +17°C° 0 mm 3 mps 758 mmHg 80%
05:00 +18°C° 0 mm 3 mps 758 mmHg 80%
06:00 +19°C° 0 mm 4 mps 758 mmHg 78%
07:00 +20°C° 0 mm 4 mps 758 mmHg 76%
08:00 +21°C° 0 mm 4 mps 759 mmHg 74%
09:00 +25°C° 0 mm 5 mps 758 mmHg 65%
10:00 +27°C° 0 mm 5 mps 758 mmHg 57%
11:00 +30°C° 0 mm 5 mps 757 mmHg 49%
12:00 +30°C° 0 mm 5 mps 757 mmHg 46%
13:00 +32°C° 0 mm 5 mps 756 mmHg 44%
14:00 +33°C° 0 mm 5 mps 755 mmHg 42%
15:00 +32°C° 0 mm 4 mps 755 mmHg 45%
16:00 +32°C° 0 mm 4 mps 754 mmHg 48%
17:00 +30°C° 0 mm 4 mps 754 mmHg 52%
18:00 +28°C° 0 mm 4 mps 754 mmHg 57%
19:00 +27°C° 0 mm 4 mps 754 mmHg 63%
20:00 +25°C° 0 mm 5 mps 754 mmHg 68%
21:00 +25°C° 0 mm 5 mps 754 mmHg 69%
22:00 +23°C° 0 mm 5 mps 754 mmHg 70%
23:00 +23°C° 0 mm 5 mps 754 mmHg 72%

25 September, Friday

Time Temperature Precipitation Wind Pressure Humidity
00:00 +23°C° 0 mm 5 mps 754 mmHg 69%
01:00 +23°C° 0 mm 4 mps 753 mmHg 66%
02:00 +25°C° 0 mm 4 mps 753 mmHg 63%
03:00 +23°C° 0 mm 4 mps 752 mmHg 63%
04:00 +23°C° 0 mm 4 mps 752 mmHg 64%
05:00 +23°C° 0 mm 4 mps 752 mmHg 64%
06:00 +23°C° 0 mm 4 mps 752 mmHg 64%
07:00 +25°C° 0 mm 4 mps 752 mmHg 64%
08:00 +25°C° 0 mm 4 mps 752 mmHg 64%
09:00 +27°C° 0.3 mm 4 mps 752 mmHg 61%
10:00 +28°C° 0.3 mm 4 mps 752 mmHg 59%
11:00 +29°C° 0.3 mm 3 mps 751 mmHg 57%
12:00 +31°C° 0.1 mm 3 mps 751 mmHg 53%
13:00 +32°C° 0.1 mm 2 mps 751 mmHg 49%
14:00 +34°C° 0.1 mm 2 mps 750 mmHg 45%
15:00 +33°C° 0 mm 3 mps 750 mmHg 51%
16:00 +30°C° 0 mm 4 mps 750 mmHg 57%
17:00 +29°C° 0 mm 5 mps 750 mmHg 63%
18:00 +27°C° 0.1 mm 5 mps 751 mmHg 72%
19:00 +25°C° 0.1 mm 4 mps 752 mmHg 81%
20:00 +22°C° 0.1 mm 4 mps 753 mmHg 90%
21:00 +22°C° 0.1 mm 5 mps 754 mmHg 90%
22:00 +21°C° 0.1 mm 6 mps 754 mmHg 90%
23:00 +20°C° 0.1 mm 7 mps 755 mmHg 90%

26 September, Saturday

Time Temperature Precipitation Wind Pressure Humidity
00:00 +19°C° 0.2 mm 6 mps 755 mmHg 89%
01:00 +19°C° 0.2 mm 5 mps 755 mmHg 89%
02:00 +18°C° 0.2 mm 4 mps 755 mmHg 88%
03:00 +18°C° 0.1 mm 4 mps 756 mmHg 87%
04:00 +18°C° 0.1 mm 4 mps 756 mmHg 86%
05:00 +17°C° 0.1 mm 4 mps 756 mmHg 85%
06:00 +18°C° 0 mm 4 mps 757 mmHg 82%
07:00 +17°C° 0 mm 5 mps 757 mmHg 79%
08:00 +19°C° 0 mm 6 mps 758 mmHg 75%
09:00 +20°C° 0 mm 5 mps 758 mmHg 63%
10:00 +22°C° 0 mm 5 mps 758 mmHg 51%
11:00 +25°C° 0 mm 5 mps 758 mmHg 39%
12:00 +26°C° 0 mm 6 mps 757 mmHg 35%
13:00 +27°C° 0 mm 6 mps 757 mmHg 31%
14:00 +28°C° 0 mm 6 mps 756 mmHg 27%
15:00 +27°C° 0 mm 5 mps 756 mmHg 30%
16:00 +26°C° 0 mm 5 mps 756 mmHg 33%
17:00 +25°C° 0 mm 4 mps 756 mmHg 36%
18:00 +22°C° 0 mm 4 mps 756 mmHg 39%
19:00 +20°C° 0 mm 3 mps 757 mmHg 41%
20:00 +18°C° 0 mm 3 mps 757 mmHg 43%
21:00 +18°C° 0 mm 3 mps 758 mmHg 48%
22:00 +17°C° 0 mm 3 mps 758 mmHg 52%
23:00 +16°C° 0 mm 3 mps 758 mmHg 56%
Show more